[[{"header":{"parameterUnit":"m.s-1","parameterCategory":1,"la1":30.2991,"la2":30.254,"lo1":-89.0895,"lo2":-89.0444,"dy":0.0017,"dx":0.0017,"nx":28,"ny":28,"refTime":"2023-04-20T21:00:00:Z","depth":0,"parameterNumber":2,"parameterNumberName":"U-component_of_WINDS"},"data":[0,0,0,0,0,0,0,0,0,0,0,0,0,0,0,0,0,0,0,0,0,0,0,0,0,0,0,0,0,0,0,0,0,0,0,0,0,0,0,0,0,0,0,0,0,0,0,0,0,0,0,0,0,0,0,0,0,0,-4.8384,-4.8385,0,-4.8492,-4.8493,-4.8494,-4.842,-4.8417,-4.8413,-4.841,-4.8521,-4.8527,-4.8533,0,0,0,0,0,0,0,0,0,0,0,0,0,-4.8116,-4.8121,-4.8384,-4.8386,-4.8387,-4.8492,-4.8493,-4.8495,-4.8421,-4.8417,-4.8413,-4.8409,-4.8519,-4.8526,-4.8534,0,0,0,0,0,0,0,0,0,0,0,0,0,-4.8229,-4.8123,-4.8384,-4.8363,-4.8362,-4.8492,-4.8493,-4.8495,-4.8422,-4.8417,-4.8412,-4.8407,-4.8517,-4.8526,-4.8535,-4.8691,0,0,-4.8562,-4.8566,0,0,0,0,0,0,0,0,-4.8222,-4.8239,-4.8364,-4.8364,-4.8364,-4.8437,-4.8439,-4.8561,-4.8423,-4.8399,-4.841,-4.8404,-4.8497,-4.8508,-4.8539,-4.8696,-4.8701,-4.8563,-4.8569,-4.8573,-4.8575,0,0,0,0,0,0,0,-4.8215,-4.8234,-4.8427,-4.8366,-4.8366,-4.8348,-4.8359,-4.8462,-4.8475,-4.8401,-4.8395,-4.8409,-4.8496,-4.853,-4.8541,-4.8703,-4.8563,-4.8571,-4.8577,-4.858,-4.8995,-4.9,0,0,0,0,0,0,-4.8209,-4.8228,-4.8423,-4.843,-4.8279,-4.8357,-4.8369,-4.8419,-4.8474,-4.8477,-4.8413,-4.8405,-4.8517,-4.853,-4.8545,-4.8731,-4.8572,-4.8581,-4.8586,-4.8989,-4.8996,-4.9002,0,0,0,0,0,0,-4.8203,-4.8227,-4.8419,-4.8328,-4.8351,-4.8367,-4.8424,-4.8424,-4.8458,-4.8483,-4.8485,-4.8446,-4.8514,-4.8532,-4.8655,-4.8734,-4.8585,-4.8593,-4.8983,-4.8992,-4.8999,-4.9106,0,0,0,0,0,0,-4.8196,-4.8225,-4.8284,-4.8329,-4.8356,-4.8528,-4.8429,-4.8429,-4.8474,-4.8464,-4.8514,-4.8518,-4.8511,-4.8642,-4.8665,-4.8744,-4.8601,-4.8976,-4.8987,-4.8997,-4.9096,-4.9117,-4.9136,0,0,0,0,0,-4.8186,-4.831,-4.8288,-4.8312,-4.843,-4.8533,-4.8548,-4.8537,-4.848,-4.854,-4.8557,-4.8516,-4.8723,-4.8656,-4.868,-4.8763,-4.8971,-4.8984,-4.8996,-4.9087,-4.9113,-4.9135,0,0,0,0,0,0,-4.8274,-4.8316,-4.8291,-4.8433,-4.848,-4.852,-4.8595,-4.8566,-4.8629,-4.8618,-4.8603,-4.8615,-4.8744,-4.8766,-4.8691,-4.8918,-4.8838,-4.8856,-4.8899,-4.8924,-4.8943,-4.8934,-4.8608,0,0,0,0,0,-4.831,-4.8389,-4.8422,-4.8544,-4.8569,-4.8578,-4.8622,-4.8611,-4.8658,-4.8678,-4.8703,-4.8751,-4.8827,-4.8877,-4.8948,-4.91,-4.9109,-4.9169,-4.9189,-4.9206,-4.9221,-4.9303,-4.9329,-4.9043,-4.9043,-4.9043,0,0,-4.8385,-4.8417,-4.8468,-4.8563,-4.8597,-4.868,-4.8595,-4.8686,-4.8747,-4.8691,-4.8809,-4.8831,-4.8883,-4.9022,-4.9084,-4.9044,-4.9302,-4.9222,-4.9234,-4.9241,-4.9318,-4.9345,-4.9369,-4.9052,-4.905,-4.9049,0,0,-4.8563,-4.8596,-4.8701,-4.8738,-4.8792,-4.8798,-4.8823,-4.8868,-4.888,-4.8998,-4.8958,-4.9032,-4.9162,-4.9201,-4.9238,-4.9434,-4.9399,-4.9458,-4.9561,-4.9641,-4.9664,-4.9684,-4.9753,-4.9778,-4.9473,-4.9474,-4.9474,0,-4.8648,-4.8771,-4.8759,-4.8853,-4.8896,-4.885,-4.8957,-4.8994,-4.9068,-4.9099,-4.9054,-4.9217,-4.925,-4.9396,-4.9444,-4.9476,-4.9505,-4.9451,-4.9662,-4.9681,-4.97,-4.9765,-4.9791,-4.948,-4.948,-4.9479,-4.9478,0,-4.8874,-4.896,-4.9039,-4.9112,-4.9164,-4.9264,-4.9268,-4.9322,-4.9307,-4.9318,-4.9439,-4.9477,-4.9555,-4.9589,-4.9575,-4.9735,-4.9708,-4.9663,-4.9581,-4.9734,-4.9795,-4.982,-4.949,-4.9488,-4.9486,-4.9484,0,0,-4.9107,-4.9174,-4.9203,-4.9236,-4.9293,-4.9359,-4.9458,-4.9535,-4.9581,-4.9635,-4.9717,-4.983,-4.9789,-4.9831,-4.9821,-4.9892,-5.0044,-4.9838,-4.9839,-4.9873,-5.0221,-5.0254,-5.0283,-5.0022,-5.0027,-5.0031,-5.0217,0,-4.9287,-4.9459,-4.9452,-4.9612,-4.9691,-4.965,-4.9736,-4.9781,-4.9795,-4.9864,-4.988,-4.9959,-4.9899,-4.9924,-4.9993,-5.0011,-5.0113,-4.9998,-5.0098,-5.0101,-5.0083,-5.0315,-5.0349,-5.0523,-5.0241,-5.0245,-5.0248,0,-4.9519,-4.9581,-4.9749,-4.9796,-4.9829,-4.9906,-4.9976,-5.0043,-5.0094,-5.0099,-5.0147,-5.0127,-5.0227,-5.0145,-5.0283,-5.0205,-5.0246,-5.0262,-5.0268,-5.0275,-5.0182,-5.0327,-5.0578,-5.0603,-5.0285,-5.0282,-5.028,0,-4.9671,-4.9797,-4.9914,-4.9943,-5.0,-5.0056,-5.0082,-5.0128,-5.0174,-5.0236,-5.0266,-5.0339,-5.0379,-5.0436,-5.0436,-5.0376,-5.0576,-5.0494,-5.0583,-5.0583,-5.0624,-5.0621,-5.0884,-5.0655,-5.0654,-5.0654,-5.0653,0,-4.9872,-4.9976,-4.9982,-5.0054,-5.017,-5.0162,-5.0277,-5.0298,-5.034,-5.0415,-5.0385,-5.0456,-5.0453,-5.0526,-5.0527,-5.0641,-5.066,-5.0666,-5.0665,-5.0668,-5.0667,-5.0693,-5.068,-5.0661,-5.0659,-5.0658,-5.0657,0,-5.006,-5.0068,-5.0193,-5.0237,-5.0251,-5.0334,-5.0372,-5.0441,-5.0453,-5.0549,-5.0571,-5.0589,-5.0674,-5.068,-5.0778,-5.0778,-5.0917,-5.0903,-5.0899,-5.0896,-5.0984,-5.0975,-5.1271,-5.1309,-5.1057,-5.1059,-5.1061,0,-5.0186,-5.0265,-5.0318,-5.0367,-5.0396,-5.0475,-5.0522,-5.0519,-5.057,-5.0634,-5.0695,-5.0777,-5.0841,-5.0978,-5.1,-5.1075,-5.1062,-5.1161,-5.1073,-5.1073,-5.1062,-5.1056,-5.1064,-5.1177,-5.118,-5.1182,-5.1184,0,-5.0408,-5.0409,-5.0479,-5.0551,-5.0609,-5.0666,-5.0718,-5.076,-5.0763,-5.0822,-5.0907,-5.0958,-5.1058,-5.1139,-5.1213,-5.124,-5.1213,-5.1212,-5.1236,-5.1238,-5.1232,-5.1235,-5.0944,-5.1204,-5.1202,-5.1201,-5.12,-5.1199,-5.0568,-5.0637,-5.0685,-5.0764,-5.0804,-5.0854,-5.0921,-5.0941,-5.1013,-5.1093,-5.1088,-5.1183,-5.1233,-5.1328,-5.1362,-5.1437,-5.1403,-5.1439,-5.1447,-5.1456,-5.1464,-5.1223,-5.145,-5.145,-5.1449,-5.1449,-5.1448,0,-5.0788,-5.0818,-5.0891,-5.0965,-5.1028,-5.0998,-5.1055,-5.1109,-5.1193,-5.1242,-5.1307,-5.1406,-5.1485,-5.1515,-5.1592,-5.1646,-5.1635,-5.1666,-5.1661,-5.1668,-5.149,-5.1461,-5.1674,-5.1674,-5.1674,-5.1674,-5.1673,-5.1673,-5.0909,-5.1023,-5.1031,-5.1165,-5.1194,-5.1286,-5.1321,-5.1368,-5.1407,-5.1519,-5.1585,-5.1604,-5.1645,-5.1725,-5.1797,-5.1804,-5.1833,-5.1869,-5.187,-5.1703,-5.168,-5.1659,-5.1631,-5.1876,-5.1876,-5.2042,-5.2043,-5.2044]},{"header":{"parameterUnit":"m.s-1","parameterCategory":1,"la1":30.2991,"la2":30.254,"lo1":-89.0895,"lo2":-89.0444,"dy":0.0017,"dx":0.0017,"nx":28,"ny":28,"refTime":"2023-04-20T21:00:00:Z","depth":0,"parameterNumber":3,"parameterNumberName":"V-component_of_WINDS"},"data":[0,0,0,0,0,0,0,0,0,0,0,0,0,0,0,0,0,0,0,0,0,0,0,0,0,0,0,0,0,0,0,0,0,0,0,0,0,0,0,0,0,0,0,0,0,0,0,0,0,0,0,0,0,0,0,0,0,0,1.8227,1.8226,0,1.8213,1.8213,1.8213,1.818,1.818,1.8179,1.8179,1.8163,1.8163,1.8163,0,0,0,0,0,0,0,0,0,0,0,0,0,1.8224,1.8224,1.8227,1.8226,1.8226,1.8213,1.8213,1.8213,1.8181,1.818,1.8179,1.8178,1.8163,1.8163,1.8163,0,0,0,0,0,0,0,0,0,0,0,0,0,1.8219,1.8224,1.8227,1.8209,1.8207,1.8213,1.8213,1.8213,1.8181,1.818,1.8179,1.8178,1.8163,1.8163,1.8163,1.8185,0,0,1.8164,1.8164,0,0,0,0,0,0,0,0,1.822,1.8219,1.8211,1.821,1.8208,1.8198,1.8206,1.8204,1.8181,1.8191,1.8178,1.8177,1.8175,1.8174,1.8174,1.8185,1.8184,1.8164,1.8165,1.8165,1.8165,0,0,0,0,0,0,0,1.822,1.822,1.8221,1.8211,1.8209,1.8201,1.8199,1.8206,1.8189,1.819,1.8187,1.8186,1.8174,1.8174,1.8173,1.8184,1.8164,1.8165,1.8165,1.8165,1.8214,1.8215,0,0,0,0,0,0,1.8223,1.822,1.8222,1.8221,1.8212,1.8202,1.82,1.8202,1.8188,1.8186,1.8187,1.8185,1.8174,1.8173,1.8173,1.8199,1.8165,1.8165,1.8165,1.8213,1.8214,1.8216,0,0,0,0,0,0,1.8223,1.8223,1.8222,1.822,1.8219,1.8203,1.8205,1.8202,1.8202,1.8187,1.8183,1.819,1.8173,1.8172,1.8183,1.8198,1.8165,1.8165,1.8212,1.8213,1.8215,1.8251,0,0,0,0,0,0,1.8223,1.8224,1.8232,1.822,1.8219,1.8233,1.8206,1.8203,1.8203,1.82,1.8189,1.8186,1.8172,1.8183,1.8183,1.8198,1.8166,1.821,1.8212,1.8214,1.8249,1.8254,1.8259,0,0,0,0,0,1.8223,1.8242,1.8232,1.8233,1.8229,1.8234,1.8233,1.8218,1.8204,1.8212,1.8203,1.8186,1.8196,1.8184,1.8185,1.8199,1.8209,1.8212,1.8214,1.8247,1.8253,1.8258,0,0,0,0,0,0,1.8254,1.824,1.8229,1.8245,1.8241,1.8229,1.8238,1.8225,1.8224,1.8221,1.8202,1.8199,1.8213,1.8207,1.8194,1.8221,1.82,1.8203,1.8225,1.8231,1.8235,1.8237,1.8166,0,0,0,0,0,1.8263,1.8268,1.8255,1.827,1.8269,1.8254,1.8256,1.8244,1.8239,1.8237,1.8228,1.8224,1.8226,1.8228,1.8229,1.8248,1.8246,1.8258,1.8263,1.8267,1.827,1.8281,1.8287,1.8224,1.8224,1.8224,0,0,1.8281,1.8274,1.8278,1.8276,1.8272,1.8278,1.8253,1.826,1.8264,1.8238,1.8248,1.8242,1.8235,1.8251,1.8257,1.8246,1.8287,1.8271,1.8274,1.8274,1.8284,1.829,1.8296,1.8226,1.8225,1.8225,0,0,1.8317,1.8312,1.8325,1.8321,1.8316,1.8306,1.8309,1.8299,1.8294,1.8305,1.8286,1.829,1.8294,1.8291,1.829,1.8327,1.8312,1.8328,1.8354,1.8365,1.837,1.8375,1.8389,1.8395,1.8331,1.8331,1.8331,0,1.834,1.8349,1.8333,1.8342,1.8342,1.832,1.8333,1.833,1.8325,1.8326,1.8314,1.832,1.8314,1.8329,1.8339,1.8338,1.8342,1.8329,1.8371,1.8375,1.8379,1.8393,1.8398,1.8333,1.8333,1.8333,1.8332,0,1.8378,1.8384,1.8395,1.8392,1.8394,1.8405,1.8391,1.8394,1.8383,1.8375,1.8386,1.8379,1.8379,1.8382,1.837,1.8396,1.8389,1.8375,1.8353,1.8387,1.84,1.8405,1.8336,1.8335,1.8335,1.8334,0,0,1.8432,1.8422,1.8426,1.8425,1.8418,1.8423,1.8433,1.8434,1.8438,1.8436,1.8445,1.845,1.8437,1.8436,1.8424,1.8433,1.8465,1.8417,1.8417,1.8428,1.8495,1.8507,1.8513,1.8456,1.8456,1.8457,1.8496,0,1.8467,1.8485,1.8472,1.8492,1.8498,1.8478,1.8487,1.8484,1.8477,1.8482,1.8474,1.8478,1.846,1.8459,1.8468,1.846,1.8479,1.8457,1.8464,1.8464,1.8467,1.852,1.8532,1.8569,1.8501,1.8501,1.8502,0,1.851,1.8511,1.8533,1.8526,1.8528,1.8537,1.8538,1.8542,1.8539,1.8533,1.8533,1.8519,1.8529,1.8509,1.8523,1.8508,1.851,1.8507,1.8508,1.8509,1.8486,1.8522,1.858,1.8586,1.8509,1.8509,1.8508,0,1.855,1.8556,1.857,1.857,1.8562,1.8569,1.8566,1.8562,1.8564,1.8564,1.8566,1.8567,1.8568,1.857,1.8558,1.8543,1.8574,1.8552,1.857,1.8571,1.8578,1.8578,1.8637,1.8578,1.8578,1.8578,1.8578,0,1.8591,1.8605,1.8588,1.8597,1.8612,1.8597,1.8613,1.8608,1.8604,1.8612,1.8594,1.8601,1.8584,1.859,1.858,1.8594,1.8594,1.859,1.8588,1.8592,1.8593,1.8594,1.8591,1.8579,1.8579,1.8579,1.8578,0,1.8638,1.8627,1.8641,1.8633,1.8631,1.8643,1.8637,1.8645,1.8637,1.8647,1.8648,1.8636,1.8642,1.863,1.8634,1.8627,1.8648,1.8641,1.865,1.8648,1.8667,1.8666,1.8731,1.8739,1.8673,1.8674,1.8674,0,1.8665,1.8675,1.8669,1.8674,1.8672,1.8679,1.8681,1.8667,1.867,1.8668,1.8677,1.8682,1.8685,1.8696,1.8687,1.8691,1.8684,1.8706,1.8684,1.869,1.8686,1.8686,1.8687,1.8711,1.8712,1.8712,1.8713,0,1.8715,1.871,1.8714,1.8718,1.8722,1.8724,1.8724,1.8728,1.8713,1.8718,1.8725,1.8728,1.8733,1.8738,1.874,1.8737,1.8723,1.872,1.8725,1.873,1.8736,1.8734,1.8663,1.8719,1.8718,1.8718,1.8717,1.8717,1.8754,1.8763,1.8761,1.8767,1.8766,1.8767,1.8775,1.8769,1.8774,1.8778,1.8769,1.8778,1.8776,1.8777,1.8776,1.8783,1.8773,1.8779,1.8781,1.8783,1.8787,1.8734,1.8783,1.8783,1.8782,1.8782,1.8782,0,1.8804,1.8802,1.8808,1.881,1.8815,1.8802,1.8803,1.8808,1.8817,1.8816,1.882,1.8828,1.8834,1.8826,1.8831,1.8838,1.8832,1.884,1.884,1.884,1.8795,1.8791,1.8845,1.8845,1.8845,1.8845,1.8845,1.8845,1.8831,1.8847,1.8841,1.8857,1.8854,1.8864,1.8865,1.8867,1.8866,1.8877,1.8882,1.8877,1.8874,1.8878,1.8883,1.8881,1.8884,1.8894,1.889,1.8848,1.8842,1.8837,1.8833,1.8895,1.8895,1.8934,1.8934,1.8935]}]]